Hourly Weather Rudans'ke

Today, 10 April, Saturday

Time Temperature Precipitation Wind Pressure Humidity
00:00 +3°C° 0 mm 2 mps 743 mmHg 58%
01:00 +2°C° 0 mm 2 mps 743 mmHg 60%
02:00 +2°C° 0 mm 2 mps 743 mmHg 62%
03:00 +2°C° 0 mm 2 mps 743 mmHg 63%
04:00 +1°C° 0 mm 2 mps 743 mmHg 64%
05:00 0°C° 0 mm 3 mps 743 mmHg 65%
06:00 +1°C° 0 mm 3 mps 743 mmHg 60%
07:00 +3°C° 0 mm 3 mps 743 mmHg 56%
08:00 +4°C° 0 mm 4 mps 743 mmHg 51%
09:00 +6°C° 0 mm 4 mps 743 mmHg 47%
10:00 +7°C° 0 mm 5 mps 743 mmHg 43%
11:00 +8°C° 0 mm 5 mps 743 mmHg 39%
12:00 +9°C° 0 mm 5 mps 743 mmHg 38%
13:00 +10°C° 0 mm 5 mps 742 mmHg 36%
14:00 +11°C° 0 mm 4 mps 742 mmHg 35%
15:00 +11°C° 0 mm 4 mps 742 mmHg 35%
16:00 +11°C° 0 mm 4 mps 742 mmHg 36%
17:00 +11°C° 0 mm 3 mps 742 mmHg 36%
18:00 +10°C° 0 mm 3 mps 742 mmHg 42%
19:00 +8°C° 0 mm 3 mps 742 mmHg 49%
20:00 +5°C° 0 mm 3 mps 743 mmHg 55%
21:00 +5°C° 0 mm 3 mps 743 mmHg 56%
22:00 +4°C° 0 mm 3 mps 743 mmHg 56%
23:00 +4°C° 0 mm 3 mps 743 mmHg 57%

Tomorrow, 11 April, Sunday

Time Temperature Precipitation Wind Pressure Humidity
00:00 +4°C° 0 mm 3 mps 743 mmHg 58%
01:00 +3°C° 0 mm 3 mps 743 mmHg 58%
02:00 +3°C° 0 mm 3 mps 743 mmHg 59%
03:00 +4°C° 0 mm 2 mps 744 mmHg 60%
04:00 +3°C° 0 mm 2 mps 744 mmHg 60%
05:00 +3°C° 0 mm 2 mps 744 mmHg 61%
06:00 +4°C° 0 mm 2 mps 744 mmHg 58%
07:00 +5°C° 0 mm 3 mps 744 mmHg 55%
08:00 +7°C° 0 mm 3 mps 745 mmHg 52%
09:00 +8°C° 0 mm 3 mps 745 mmHg 47%
10:00 +10°C° 0 mm 4 mps 745 mmHg 42%
11:00 +11°C° 0 mm 4 mps 745 mmHg 37%
12:00 +12°C° 0 mm 4 mps 745 mmHg 35%
13:00 +12°C° 0 mm 4 mps 744 mmHg 33%
14:00 +13°C° 0 mm 3 mps 744 mmHg 31%
15:00 +13°C° 0 mm 3 mps 744 mmHg 32%
16:00 +13°C° 0 mm 3 mps 744 mmHg 33%
17:00 +13°C° 0 mm 4 mps 743 mmHg 35%
18:00 +11°C° 0 mm 3 mps 744 mmHg 41%
19:00 +10°C° 0 mm 3 mps 744 mmHg 47%
20:00 +8°C° 0 mm 3 mps 744 mmHg 54%
21:00 +7°C° 0 mm 2 mps 744 mmHg 55%
22:00 +7°C° 0 mm 2 mps 744 mmHg 57%
23:00 +6°C° 0 mm 2 mps 743 mmHg 58%

Day after tomorrow, 12 April, Monday

Time Temperature Precipitation Wind Pressure Humidity
00:00 +6°C° 0 mm 2 mps 743 mmHg 59%
01:00 +6°C° 0 mm 2 mps 743 mmHg 60%
02:00 +5°C° 0 mm 2 mps 743 mmHg 61%
03:00 +5°C° 0 mm 2 mps 743 mmHg 62%
04:00 +5°C° 0 mm 2 mps 743 mmHg 63%
05:00 +4°C° 0 mm 2 mps 742 mmHg 64%
06:00 +6°C° 0 mm 2 mps 742 mmHg 60%
07:00 +7°C° 0 mm 2 mps 742 mmHg 56%
08:00 +9°C° 0 mm 3 mps 742 mmHg 52%
09:00 +10°C° 0 mm 2 mps 742 mmHg 47%
10:00 +13°C° 0 mm 2 mps 742 mmHg 42%
11:00 +14°C° 0 mm 2 mps 741 mmHg 37%
12:00 +15°C° 0 mm 2 mps 741 mmHg 36%
13:00 +16°C° 0 mm 2 mps 740 mmHg 34%
14:00 +16°C° 0 mm 2 mps 740 mmHg 33%
15:00 +16°C° 0 mm 2 mps 740 mmHg 33%
16:00 +16°C° 0 mm 2 mps 739 mmHg 34%
17:00 +16°C° 0 mm 2 mps 739 mmHg 35%
18:00 +15°C° 0 mm 2 mps 739 mmHg 41%
19:00 +13°C° 0 mm 2 mps 739 mmHg 47%
20:00 +10°C° 0 mm 2 mps 740 mmHg 52%
21:00 +10°C° 0 mm 2 mps 739 mmHg 58%
22:00 +9°C° 0 mm 2 mps 739 mmHg 64%
23:00 +8°C° 0 mm 2 mps 739 mmHg 70%

13 April, Tuesday

Time Temperature Precipitation Wind Pressure Humidity
00:00 +7°C° 0 mm 2 mps 739 mmHg 73%
01:00 +7°C° 0 mm 2 mps 739 mmHg 75%
02:00 +7°C° 0 mm 2 mps 739 mmHg 78%
03:00 +6°C° 0 mm 2 mps 739 mmHg 79%
04:00 +6°C° 0 mm 2 mps 739 mmHg 79%
05:00 +7°C° 0 mm 1 mps 738 mmHg 80%
06:00 +7°C° 0 mm 2 mps 739 mmHg 74%
07:00 +9°C° 0 mm 2 mps 739 mmHg 69%
08:00 +10°C° 0 mm 2 mps 739 mmHg 64%
09:00 +13°C° 0 mm 2 mps 739 mmHg 58%
10:00 +13°C° 0 mm 3 mps 738 mmHg 51%
11:00 +16°C° 0 mm 3 mps 738 mmHg 45%
12:00 +17°C° 0 mm 3 mps 738 mmHg 43%
13:00 +17°C° 0 mm 3 mps 737 mmHg 40%
14:00 +18°C° 0 mm 3 mps 737 mmHg 38%
15:00 +18°C° 0 mm 3 mps 737 mmHg 39%
16:00 +18°C° 0 mm 3 mps 737 mmHg 41%
17:00 +17°C° 0 mm 3 mps 736 mmHg 42%
18:00 +16°C° 0 mm 3 mps 736 mmHg 51%
19:00 +13°C° 0 mm 3 mps 736 mmHg 60%
20:00 +12°C° 0 mm 3 mps 736 mmHg 69%
21:00 +11°C° 0 mm 3 mps 736 mmHg 71%
22:00 +11°C° 0 mm 3 mps 736 mmHg 74%
23:00 +10°C° 0 mm 4 mps 736 mmHg 77%

14 April, Wednesday

Time Temperature Precipitation Wind Pressure Humidity
00:00 +9°C° 0 mm 3 mps 735 mmHg 78%
01:00 +9°C° 0 mm 3 mps 735 mmHg 80%
02:00 +8°C° 0 mm 3 mps 735 mmHg 81%
03:00 +8°C° 0 mm 3 mps 734 mmHg 82%
04:00 +7°C° 0 mm 3 mps 734 mmHg 83%
05:00 +7°C° 0 mm 3 mps 734 mmHg 84%
06:00 +7°C° 0 mm 4 mps 734 mmHg 80%
07:00 +7°C° 0 mm 5 mps 734 mmHg 77%
08:00 +7°C° 0 mm 6 mps 734 mmHg 73%
09:00 +8°C° 0 mm 6 mps 734 mmHg 71%
10:00 +9°C° 0 mm 6 mps 734 mmHg 69%
11:00 +10°C° 0 mm 6 mps 733 mmHg 67%
12:00 +10°C° 0 mm 6 mps 733 mmHg 68%
13:00 +10°C° 0 mm 6 mps 733 mmHg 69%
14:00 +10°C° 0 mm 5 mps 733 mmHg 70%
15:00 +9°C° 0.3 mm 5 mps 732 mmHg 76%
16:00 +8°C° 0.3 mm 4 mps 732 mmHg 81%
17:00 +7°C° 0.3 mm 4 mps 732 mmHg 87%
18:00 +7°C° 0.7 mm 4 mps 732 mmHg 88%
19:00 +8°C° 0.7 mm 3 mps 732 mmHg 90%
20:00 +7°C° 0.7 mm 3 mps 731 mmHg 91%
21:00 +7°C° 0.7 mm 3 mps 731 mmHg 92%
22:00 +7°C° 0.7 mm 3 mps 731 mmHg 93%
23:00 +7°C° 0.7 mm 3 mps 730 mmHg 94%

15 April, Thursday

Time Temperature Precipitation Wind Pressure Humidity
00:00 +7°C° 0.4 mm 3 mps 730 mmHg 95%
01:00 +7°C° 0.4 mm 3 mps 729 mmHg 95%
02:00 +6°C° 0.4 mm 4 mps 729 mmHg 96%
03:00 +5°C° 0.1 mm 4 mps 729 mmHg 96%
04:00 +4°C° 0.1 mm 4 mps 729 mmHg 95%
05:00 +2°C° 0.1 mm 5 mps 728 mmHg 95%
06:00 +2°C° 0 mm 5 mps 729 mmHg 94%
07:00 +1°C° 0 mm 5 mps 729 mmHg 94%
08:00 0°C° 0 mm 5 mps 729 mmHg 94%
09:00 0°C° 0 mm 5 mps 730 mmHg 94%
10:00 0°C° 0 mm 5 mps 730 mmHg 94%
11:00 0°C° 0 mm 5 mps 730 mmHg 94%
12:00 0°C° 0.1 mm 5 mps 730 mmHg 94%
13:00 0°C° 0.1 mm 5 mps 730 mmHg 95%
14:00 0°C° 0.1 mm 5 mps 730 mmHg 95%
15:00 0°C° 0.2 mm 5 mps 730 mmHg 95%
16:00 -1°C° 0.2 mm 6 mps 730 mmHg 96%
17:00 -1°C° 0.2 mm 6 mps 730 mmHg 96%
18:00 -1°C° 0.2 mm 6 mps 730 mmHg 96%
19:00 -2°C° 0.2 mm 6 mps 730 mmHg 96%
20:00 -2°C° 0.2 mm 6 mps 730 mmHg 96%
21:00 -1°C° 0.1 mm 5 mps 730 mmHg 96%
22:00 -1°C° 0.1 mm 5 mps 730 mmHg 96%
23:00 -1°C° 0.1 mm 5 mps 730 mmHg 96%
Show more